Content
SEND FEEDBACK

Daily
Averages
Monthly
Summary
United States of America

ANKENY, IOWA


Home > North America > United States > Iowa
Elevation: 897 feet     Latitude: 41 43N     Longitude: 093 34W

WEATHER
 
SELECT A DAY
Number of Records: 107,388;   Date Range: 1/4/11 - 7/27/14
 
SHARE

PRINT THIS DATA

[ ← Previous Day ]
WEATHER ALMANAC - FEBRUARY 13, 2013
[ Next Day → ]
[ °C ]   °F
Weather ElementAverageHighLow
Temperature38.4 °F51.8 °F (3:15 pm)26.6 °F (6:15 am)
Dewpoint26 °F30.2 °F (11:55 am)21.2 °F (6:55 am)
Humidity63.4 %86 % (12:55 am)38 % (3:15 pm)
Barometer29.77 in29.87 in (12:35 am)29.68 in (8:35 pm)
Wind Speed7.2 mph12.7 mph (12:55 pm)
Weather ElementAverage
Visibility10 mi
Wind DirectionWSW (237.2 °)

Weather ElementTotal
Precipitation---
Heating Degree Days25.8 (Base 65)
Averaged from 71 records on February 13, 2013
WEATHER CONDITIONS BREAKOUT
WIND DIRECTION BREAKOUT
WEATHER BY HOUR - FEBRUARY 13, 2013
[ °C ]   °F
Local TimeTemperatureDewpointHumidityBarometerVisibilityWind DirectionWind SpeedGust SpeedPrecipitationEventsConditions
12:35 AM30.2 °F24.8 °F80 %29.87 in10.0 miCalmClear
12:55 AM28.4 °F24.8 °F86 %29.86 in10.0 miCalmClear
1:15 AM28.4 °F23.0 °F80 %29.86 in10.0 miCalmClear
1:35 AM28.4 °F24.8 °F86 %29.86 in10.0 miWest (260°)4.6 mphClear
1:55 AM28.4 °F24.8 °F86 %29.86 in10.0 miWest (270°)5.8 mphClear
2:15 AM28.4 °F24.8 °F86 %29.86 in10.0 miWNW (290°)8.1 mphClear
2:35 AM30.2 °F24.8 °F80 %29.85 in10.0 miWest (270°)8.1 mphClear
2:55 AM28.4 °F24.8 °F86 %29.84 in10.0 miWest (260°)6.9 mphClear
3:15 AM28.4 °F24.8 °F86 %29.84 in10.0 miWNW (290°)8.1 mphClear
3:35 AM28.4 °F24.8 °F86 %29.84 in10.0 miWest (270°)6.9 mphClear
3:55 AM28.4 °F23.0 °F80 %29.83 in10.0 miWest (280°)4.6 mphClear
4:15 AM28.4 °F23.0 °F80 %29.82 in10.0 miWNW (290°)5.8 mphClear
4:35 AM28.4 °F23.0 °F80 %29.82 in10.0 miWNW (300°)6.9 mphClear
4:55 AM28.4 °F23.0 °F80 %29.82 in10.0 miWNW (290°)4.6 mphClear
5:15 AM28.4 °F23.0 °F80 %29.82 in10.0 miWNW (290°)5.8 mphClear
5:35 AM28.4 °F23.0 °F80 %29.82 in10.0 miWNW (290°)5.8 mphClear
5:55 AM28.4 °F23.0 °F80 %29.82 in10.0 miWNW (290°)3.5 mphClear
6:15 AM26.6 °F23.0 °F86 %29.82 in10.0 miCalmClear
6:35 AM28.4 °F23.0 °F80 %29.81 in10.0 miCalmClear
6:55 AM26.6 °F21.2 °F80 %29.81 in10.0 miWNW (290°)4.6 mphClear
7:15 AM26.6 °F21.2 °F80 %29.81 in10.0 miCalmClear
7:35 AM26.6 °F21.2 °F80 %29.82 in10.0 miWNW (290°)4.6 mphClear
7:55 AM28.4 °F23.0 °F80 %29.82 in10.0 miWNW (290°)4.6 mphClear
8:15 AM28.4 °F24.8 °F86 %29.82 in10.0 miWNW (290°)6.9 mphClear
8:35 AM30.2 °F24.8 °F80 %29.82 in10.0 miWNW (290°)8.1 mphClear
8:55 AM30.2 °F24.8 °F80 %29.82 in10.0 miWNW (290°)6.9 mphClear
9:15 AM33.8 °F26.6 °F75 %29.81 in10.0 miWNW (290°)6.9 mphClear
9:35 AM33.8 °F26.6 °F75 %29.82 in10.0 miWNW (290°)9.2 mphClear
9:55 AM35.6 °F26.6 °F70 %29.82 in10.0 miWNW (290°)9.2 mphClear
10:15 AM37.4 °F28.4 °F70 %29.82 in10.0 miWNW (290°)10.4 mphClear
10:35 AM37.4 °F26.6 °F65 %29.82 in10.0 miWNW (290°)6.9 mphClear
10:55 AM39.2 °F26.6 °F61 %29.82 in10.0 miWNW (290°)5.8 mphClear
11:15 AM39.2 °F26.6 °F61 %29.81 in10.0 miWest (270°)9.2 mphClear
11:35 AM41.0 °F28.4 °F61 %29.81 in10.0 miWest (270°)9.2 mphClear
11:55 AM42.8 °F30.2 °F61 %29.80 in10.0 miWSW (250°)6.9 mphClear
12:15 PM42.8 °F28.4 °F57 %29.79 in10.0 miWSW (240°)10.4 mphClear
12:35 PM44.6 °F28.4 °F53 %29.78 in10.0 miWSW (240°)8.1 mphClear
12:55 PM44.6 °F28.4 °F53 %29.77 in10.0 miWest (270°)12.7 mphClear
1:15 PM46.4 °F28.4 °F50 %29.76 in10.0 miWest (260°)10.4 mphClear
1:35 PM48.2 °F28.4 °F46 %29.76 in10.0 miWest (260°)9.2 mphClear
1:55 PM48.2 °F28.4 °F46 %29.76 in10.0 miWSW (250°)11.5 mphClear
2:15 PM48.2 °F28.4 °F46 %29.75 in10.0 miWNW (290°)9.2 mphClear
2:35 PM50.0 °F28.4 °F43 %29.74 in10.0 miWSW (240°)9.2 mphClear
2:55 PM50.0 °F26.6 °F40 %29.74 in10.0 miWSW (250°)10.4 mphClear
3:15 PM51.8 °F26.6 °F38 %29.73 in10.0 miWSW (250°)9.2 mphClear
3:35 PM51.8 °F26.6 °F38 %29.73 in10.0 miWest (260°)6.9 mphClear
3:55 PM51.8 °F26.6 °F38 %29.73 in10.0 miWSW (250°)10.4 mphClear
4:15 PM50.0 °F26.6 °F40 %29.73 in10.0 miWSW (240°)11.5 mphClear
4:35 PM48.2 °F26.6 °F43 %29.72 in10.0 miWSW (240°)10.4 mphClear
4:55 PM48.2 °F24.8 °F40 %29.72 in10.0 miSW (230°)9.2 mphClear
5:15 PM46.4 °F26.6 °F46 %29.72 in10.0 miSW (220°)5.8 mphClear
5:35 PM46.4 °F26.6 °F46 %29.72 in10.0 miSW (230°)8.1 mphClear
5:55 PM46.4 °F26.6 °F46 %29.72 in10.0 miSW (220°)6.9 mphScattered Clouds
6:15 PM46.4 °F26.6 °F46 %29.72 in10.0 miSW (220°)6.9 mphClear
6:35 PM44.6 °F26.6 °F49 %29.72 in10.0 miSW (220°)6.9 mphScattered Clouds
6:55 PM44.6 °F26.6 °F49 %29.71 in10.0 miSouth (190°)5.8 mphMostly Cloudy
7:15 PM44.6 °F26.6 °F49 %29.70 in10.0 miSouth (190°)5.8 mphScattered Clouds
7:35 PM44.6 °F26.6 °F49 %29.70 in10.0 miSouth (190°)6.9 mphScattered Clouds
7:55 PM44.6 °F26.6 °F49 %29.69 in10.0 miSSW (200°)9.2 mphScattered Clouds
8:15 PM44.6 °F26.6 °F49 %29.69 in10.0 miSSW (200°)6.9 mphScattered Clouds
8:35 PM44.6 °F26.6 °F49 %29.68 in10.0 miSSW (210°)6.9 mphScattered Clouds
8:55 PM44.6 °F26.6 °F49 %29.68 in10.0 miSSW (210°)6.9 mphScattered Clouds
9:15 PM44.6 °F28.4 °F53 %29.68 in10.0 miSW (220°)8.1 mphMostly Cloudy
9:35 PM42.8 °F28.4 °F57 %29.68 in10.0 miSW (220°)9.2 mphScattered Clouds
9:55 PM42.8 °F28.4 °F57 %29.68 in10.0 miWest (260°)9.2 mphClear
10:15 PM42.8 °F28.4 °F57 %29.69 in10.0 miWest (270°)12.7 mphClear
10:35 PM41.0 °F28.4 °F61 %29.68 in10.0 miWest (260°)9.2 mphClear
10:55 PM42.8 °F28.4 °F57 %29.69 in10.0 miWest (270°)10.4 mphScattered Clouds
11:15 PM42.8 °F28.4 °F57 %29.69 in10.0 miWest (280°)9.2 mphScattered Clouds
11:35 PM41.0 °F28.4 °F61 %29.69 in10.0 miWNW (290°)6.9 mphClear
11:55 PM41.0 °F28.4 °F61 %29.70 in10.0 miWNW (290°)6.9 mphClear
Hourly data recorded from KIKV, located miles away from Ankeny, Iowa







STORIES FROM OUR PARTNERS